Location: Edmonton
(53.5461°N, 113.4938°W)
Time: 01:58:06
(UTC-07:00)

ISS - Visible Passes

Search period start: 21 January 2021 00:00
Search period end: 31 January 2021 00:00
Orbit: 418 x 419 km, 51.6° (Epoch: 21 January)

Date Brightness Start Highest point End Pass type
(mag) Time Alt. Az. Time Alt. Az. Time Alt. Az.
21 Jan -2.2 19:14:49 10° SW 19:17:08 27° S 19:17:08 27° S visible
22 Jan -2.1 18:27:31 10° SSW 18:30:10 22° SSE 18:31:27 18° ESE visible
22 Jan -1.2 20:03:14 10° WSW 20:04:24 20° WSW 20:04:24 20° WSW visible
23 Jan -1.6 17:40:27 10° S 17:42:36 16° SE 17:44:46 10° ESE visible
23 Jan -3.1 19:15:36 10° WSW 19:18:39 45° S 19:18:39 45° S visible
24 Jan -2.8 18:28:01 10° SW 18:31:10 36° SSE 18:32:52 21° ESE visible
24 Jan -1.4 20:04:22 10° W 20:05:49 23° WSW 20:05:49 23° WSW visible
25 Jan -2.3 17:40:33 10° SW 17:43:30 28° SSE 17:46:27 10° E visible
25 Jan -3.6 19:16:37 10° WSW 19:19:58 60° S 19:20:00 60° S visible
26 Jan -3.3 18:28:55 10° WSW 18:32:13 53° SSE 18:34:10 22° E visible
26 Jan -1.5 20:05:31 10° W 20:07:07 25° W 20:07:07 25° W visible
27 Jan -3.7 19:17:44 10° W 19:21:05 63° S 19:21:17 61° SSE visible
28 Jan -3.5 18:29:58 10° W 18:33:18 63° S 18:35:27 20° E visible
28 Jan -1.6 20:06:40 10° W 20:08:24 25° WSW 20:08:24 25° WSW visible
29 Jan -3.3 19:18:51 10° W 19:22:08 52° SSW 19:22:35 47° SSE visible
30 Jan -3.3 18:31:01 10° W 18:34:21 59° S 18:36:49 17° ESE visible
30 Jan -1.5 20:07:53 10° W 20:09:46 23° WSW 20:09:46 23° WSW visible
